CW4535 Weather Reports


Display with metric or nautical units.
time (UTC)temp
F
wind
direction
speed
MPH
gust
MPH
rain 1hr
in
rain 24hr
in
rain mn
in
humidity
%
barometer
mb
20260507054003 48 0 0.0 0.0 0.00 0.00 0.00 81 1018.5
20260507053003 48 0 0.0 0.0 0.00 0.00 0.00 80 1018.5
20260507052003 49 0 0.0 0.0 0.00 0.00 0.00 80 1018.3
20260507051003 49 0 0.0 0.0 0.00 0.00 0.00 79 1018.4
20260507050004 49 0 0.0 0.0 0.00 0.00 0.00 80 1018.4
20260507045219 49 0 0.0 0.0 0.00 0.00 0.00 80 1018.3
20260507044003 48 0 0.0 0.0 0.00 0.00 0.00 79 1018.2
20260507043003 48 0 0.0 0.0 0.00 0.00 0.00 79 1018.2
20260507042004 49 0 0.0 0.0 0.00 0.00 0.00 78 1018.3
20260507041003 49 0 0.0 0.0 0.00 0.00 0.00 77 1018.2
20260507040003 50 0 0.0 0.0 0.00 0.00 0.00 76 1018.2
20260507035220 50 0 0.0 0.0 0.00 0.00 0.00 75 1018.4
20260507034003 51 0 0.0 0.0 0.00 0.00 0.00 74 1018.0
20260507033003 51 0 0.0 0.0 0.00 0.00 0.00 73 1017.9
20260507032003 52 0 0.0 0.0 0.00 0.00 0.00 71 1017.8
20260507031003 52 0 0.0 0.0 0.00 0.00 0.00 69 1017.8
20260507030219 53 0 0.0 0.0 0.00 0.00 0.00 67 1017.7
20260507025003 54 0 0.0 0.0 0.00 0.00 0.00 65 1017.6
20260507024003 55 0 0.0 0.0 0.00 0.00 0.00 63 1017.5
20260507023003 56 0 0.0 0.0 0.00 0.00 0.00 61 1017.5
20260507022003 57 0 0.0 0.0 0.00 0.00 0.00 59 1017.3
20260507021003 58 341 0.0 1.0 0.00 0.00 0.00 57 1017.3
20260507020003 58 341 1.0 5.0 0.00 0.00 0.00 56 1017.2
20260507015003 59 0 0.0 0.0 0.00 0.00 0.00 55 1017.1
20260507014003 59 340 1.0 7.0 0.00 0.00 0.00 54 1016.9
20260507013003 59 350 0.0 4.0 0.00 0.00 0.00 55 1016.7
20260507012003 60 0 0.0 0.0 0.00 0.00 0.00 55 1016.6
20260507011003 60 0 0.0 0.0 0.00 0.00 0.00 54 1016.5
20260507010221 61 6 0.0 1.0 0.00 0.00 0.00 53 1016.4
20260507005221 61 2 1.0 7.0 0.00 0.00 0.00 52 1016.3
20260507004217 62 358 2.0 11.0 0.00 0.00 0.00 51 1016.2
20260507003003 62 352 1.0 5.0 0.00 0.00 0.00 50 1016.0
20260507002219 62 351 0.0 4.0 0.00 0.00 0.00 50 1016.0
20260507001003 63 12 1.0 5.0 0.00 0.00 0.00 50 1016.0
20260507000221 64 358 1.0 7.0 0.00 0.00 0.00 50 1015.9
20260506235003 64 15 2.0 8.0 0.00 0.00 0.00 49 1015.8
20260506234003 65 11 1.0 7.0 0.00 0.00 0.00 48 1015.8
20260506233003 66 68 0.0 2.0 0.00 0.00 0.00 48 1015.8
20260506232220 65 353 1.0 8.0 0.00 0.00 0.00 48 1015.7
20260506231003 65 350 1.0 6.0 0.00 0.00 0.00 47 1015.6
20260506230003 66 21 2.0 10.0 0.00 0.00 0.00 46 1015.4
20260506225003 67 37 2.0 8.0 0.00 0.00 0.00 49 1015.3
20260506224003 66 3 2.0 9.0 0.00 0.00 0.00 50 1015.2
20260506223003 66 7 3.0 6.0 0.00 0.00 0.00 47 1015.2
20260506222003 67 357 2.0 8.0 0.00 0.00 0.00 49 1015.1
20260506221003 66 360 2.0 8.0 0.00 0.00 0.00 50 1015.0
20260506220004 66 3 3.0 9.0 0.00 0.00 0.00 50 1015.0
20260506215003 66 342 3.0 11.0 0.00 0.00 0.00 47 1015.0
20260506214003 66 347 3.0 11.0 0.00 0.00 0.00 50 1015.1
20260506213003 66 1 1.0 7.0 0.00 0.00 0.00 49 1015.0
20260506212221 66 40 1.0 7.0 0.00 0.00 0.00 49 1015.0
20260506211217 66 18 2.0 8.0 0.00 0.00 0.00 50 1015.2
20260506210003 65 33 1.0 4.0 0.00 0.00 0.00 54 1015.3
20260506205219 64 37 3.0 8.0 0.00 0.00 0.00 50 1015.3
20260506204003 66 4 2.0 10.0 0.00 0.00 0.00 48 1015.6
20260506203003 66 15 2.0 10.0 0.00 0.00 0.00 49 1015.8
20260506202003 66 349 3.0 7.0 0.00 0.00 0.00 50 1015.8
20260506201004 65 350 2.0 8.0 0.00 0.00 0.00 55 1015.9
20260506200003 64 359 1.0 11.0 0.00 0.00 0.00 53 1015.9
20260506195220 65 5 2.0 6.0 0.00 0.00 0.00 52 1015.9
20260506194003 65 49 2.0 6.0 0.00 0.00 0.00 52 1015.8
20260506193003 64 353 2.0 8.0 0.00 0.00 0.00 53 1016.0
20260506192004 64 2 2.0 9.0 0.00 0.00 0.00 52 1016.2
20260506191003 64 349 2.0 7.0 0.00 0.00 0.00 55 1016.3
20260506190004 64 3 3.0 8.0 0.00 0.00 0.00 56 1016.6
20260506185003 63 358 2.0 8.0 0.00 0.00 0.00 56 1016.6
20260506184003 64 10 2.0 10.0 0.00 0.00 0.00 54 1016.7
20260506183003 64 37 2.0 9.0 0.00 0.00 0.00 58 1017.0
20260506182218 63 24 1.0 7.0 0.00 0.00 0.00 58 1017.0
20260506181219 64 13 3.0 8.0 0.00 0.00 0.00 55 1017.1
20260506180004 65 61 2.0 8.0 0.00 0.00 0.00 56 1017.0
20260506175221 66 35 2.0 7.0 0.00 0.00 0.00 54 1017.2
20260506174003 65 62 2.0 7.0 0.00 0.00 0.00 55 1017.2
20260506173003 64 18 2.0 9.0 0.00 0.00 0.00 57 1017.6
20260506172003 64 11 2.0 7.0 0.00 0.00 0.00 54 1017.9
20260506171003 64 68 2.0 10.0 0.00 0.00 0.00 57 1018.3
20260506170004 62 57 1.0 6.0 0.00 0.00 0.00 57 1018.2
20260506165003 61 61 1.0 6.0 0.00 0.00 0.00 60 1018.4
20260506164004 60 72 1.0 3.0 0.00 0.00 0.00 59 1018.2
20260506163003 62 67 1.0 11.0 0.00 0.00 0.00 56 1017.9
20260506162003 62 10 2.0 6.0 0.00 0.00 0.00 59 1018.2
20260506161003 61 18 2.0 9.0 0.00 0.00 0.00 58 1018.1
20260506160003 60 34 1.0 6.0 0.00 0.00 0.00 60 1017.9
20260506155003 60 45 1.0 5.0 0.00 0.00 0.00 63 1017.8
20260506154003 60 14 2.0 7.0 0.00 0.00 0.00 64 1017.6
20260506153219 59 13 2.0 9.0 0.00 0.00 0.00 63 1017.4
20260506152003 58 40 2.0 8.0 0.00 0.00 0.00 63 1016.9
20260506151221 57 39 2.0 9.0 0.00 0.00 0.00 65 1016.7
20260506150003 56 79 2.0 7.0 0.00 0.00 0.00 67 1016.6
20260506145003 55 89 2.0 7.0 0.00 0.00 0.00 68 1016.6
20260506144003 55 76 2.0 8.0 0.00 0.00 0.00 69 1016.8
20260506143219 54 46 0.0 7.0 0.00 0.00 0.00 70 1016.8
20260506142003 54 28 2.0 10.0 0.00 0.00 0.00 71 1016.6
20260506141003 53 63 2.0 6.0 0.00 0.00 0.00 73 1016.7
20260506140004 52 29 2.0 6.0 0.00 0.00 0.00 74 1016.7
20260506135003 52 46 2.0 8.0 0.00 0.00 0.00 75 1016.9
20260506134003 52 41 2.0 7.0 0.00 0.00 0.00 76 1017.0
20260506133003 51 26 2.0 9.0 0.00 0.00 0.00 77 1017.1
20260506132003 51 40 3.0 11.0 0.00 0.00 0.00 76 1016.9
20260506131003 51 36 2.0 12.0 0.00 0.00 0.00 77 1017.0
20260506130003 51 31 2.0 6.0 0.00 0.00 0.00 79 1016.7
20260506125003 50 21 3.0 11.0 0.00 0.00 0.00 80 1016.7
20260506124003 50 8 2.0 7.0 0.00 0.00 0.00 82 1016.4
20260506123004 50 349 0.0 8.0 0.00 0.00 0.00 83 1016.6
20260506122217 49 351 2.0 11.0 0.00 0.00 0.00 84 1016.4
20260506121003 49 5 2.0 12.0 0.00 0.00 0.00 83 1015.9
20260506120004 49 6 2.0 7.0 0.00 0.00 0.00 82 1015.9
20260506115003 49 353 3.0 11.0 0.00 0.00 0.00 82 1016.2
20260506114003 49 347 3.0 8.0 0.00 0.00 0.00 82 1016.2
20260506113003 49 347 4.0 12.0 0.00 0.00 0.00 82 1016.0
20260506112217 49 347 3.0 10.0 0.00 0.00 0.00 82 1016.2
20260506111004 49 347 2.0 8.0 0.00 0.00 0.00 82 1016.2
20260506110003 50 342 2.0 9.0 0.00 0.00 0.00 82 1015.9
20260506105003 50 344 1.0 6.0 0.00 0.00 0.00 82 1015.5
20260506104003 50 350 1.0 6.0 0.00 0.00 0.00 81 1015.4
20260506103217 50 353 1.0 5.0 0.00 0.00 0.00 81 1015.3
20260506102003 50 349 2.0 8.0 0.00 0.00 0.00 81 1015.4
20260506101003 50 349 1.0 8.0 0.00 0.00 0.00 81 1015.2
20260506100004 50 346 1.0 5.0 0.00 0.00 0.00 81 1015.0
20260506095003 50 348 1.0 4.0 0.00 0.00 0.00 80 1015.0
20260506094222 50 343 2.0 7.0 0.00 0.00 0.00 80 1014.7
20260506093004 50 346 2.0 10.0 0.00 0.00 0.00 80 1014.5
20260506092219 50 346 2.0 7.0 0.00 0.00 0.00 80 1013.9
20260506091003 50 347 2.0 6.0 0.00 0.00 0.00 79 1013.6
20260506090003 50 345 2.0 12.0 0.00 0.00 0.00 78 1013.3
20260506085003 51 345 2.0 6.0 0.00 0.00 0.00 77 1013.4
20260506084003 51 354 1.0 7.0 0.00 0.00 0.00 76 1013.2
20260506083003 51 349 1.0 6.0 0.00 0.00 0.00 75 1012.9
20260506082003 51 4 2.0 8.0 0.00 0.00 0.00 75 1012.8
20260506081220 51 19 2.0 7.0 0.00 0.00 0.00 75 1013.0
20260506073003 51 35 0.0 5.0 0.00 0.00 0.00 75 1012.7
20260506072220 51 28 1.0 4.0 0.00 0.00 0.00 75 1012.7
20260506071003 51 8 1.0 5.0 0.00 0.00 0.00 74 1012.8
20260506062003 52 8 1.0 9.0 0.00 0.00 0.00 73 1012.8
20260506061216 52 69 1.0 5.0 0.00 0.00 0.00 73 1012.9
20260506060217 52 28 2.0 5.0 0.00 0.00 0.00 72 1012.6